owner,sensor,date,latitude,longitude,air_pressure(mBar),qcFlag 
COMPS,ioos:station:USF.COMPS:EGK:1,2013-12-03T16:00:00Z,27.6010,-82.7510,1015.5,1111122 
COMPS,ioos:station:USF.COMPS:EGK:1,2013-12-03T16:06:00Z,27.6010,-82.7510,1015.41,1111122 
COMPS,ioos:station:USF.COMPS:EGK:1,2013-12-03T16:12:00Z,27.6010,-82.7510,1015.49,1111122 
COMPS,ioos:station:USF.COMPS:EGK:1,2013-12-03T16:18:00Z,27.6010,-82.7510,1015.45,1111122 
COMPS,ioos:station:USF.COMPS:EGK:1,2013-12-03T16:24:00Z,27.6010,-82.7510,1015.49,1111122 
COMPS,ioos:station:USF.COMPS:EGK:1,2013-12-03T16:30:00Z,27.6010,-82.7510,1015.44,1111122 
COMPS,ioos:station:USF.COMPS:EGK:1,2013-12-03T16:36:00Z,27.6010,-82.7510,1015.37,1111122 
COMPS,ioos:station:USF.COMPS:EGK:1,2013-12-03T16:42:00Z,27.6010,-82.7510,1015.33,1111122 
COMPS,ioos:station:USF.COMPS:EGK:1,2013-12-03T16:48:00Z,27.6010,-82.7510,1015.22,1111122 
COMPS,ioos:station:USF.COMPS:EGK:1,2013-12-03T16:54:00Z,27.6010,-82.7510,1015.12,1111122 
COMPS,ioos:station:USF.COMPS:EGK:1,2013-12-03T17:00:00Z,27.6010,-82.7510,1015.1,1111122 
COMPS,ioos:station:USF.COMPS:EGK:1,2013-12-03T17:06:00Z,27.6010,-82.7510,1014.97,1111122 
COMPS,ioos:station:USF.COMPS:EGK:1,2013-12-03T17:12:00Z,27.6010,-82.7510,1014.9,1111122 
COMPS,ioos:station:USF.COMPS:EGK:1,2013-12-03T17:18:00Z,27.6010,-82.7510,1014.86,1111122 
COMPS,ioos:station:USF.COMPS:EGK:1,2013-12-03T17:24:00Z,27.6010,-82.7510,1014.86,1111122 
COMPS,ioos:station:USF.COMPS:EGK:1,2013-12-03T17:30:00Z,27.6010,-82.7510,1014.84,1111122 
COMPS,ioos:station:USF.COMPS:EGK:1,2013-12-03T17:36:00Z,27.6010,-82.7510,1014.74,1111122 
COMPS,ioos:station:USF.COMPS:EGK:1,2013-12-03T17:42:00Z,27.6010,-82.7510,1014.72,1111122 
COMPS,ioos:station:USF.COMPS:EGK:1,2013-12-03T17:48:00Z,27.6010,-82.7510,1014.64,1111122 
COMPS,ioos:station:USF.COMPS:EGK:1,2013-12-03T17:54:00Z,27.6010,-82.7510,1014.58,1111122 
COMPS,ioos:station:USF.COMPS:EGK:1,2013-12-03T18:00:00Z,27.6010,-82.7510,1014.52,1111122 
COMPS,ioos:station:USF.COMPS:EGK:1,2013-12-03T18:06:00Z,27.6010,-82.7510,1014.37,1111122 
COMPS,ioos:station:USF.COMPS:EGK:1,2013-12-03T18:12:00Z,27.6010,-82.7510,1014.24,1111122 
COMPS,ioos:station:USF.COMPS:EGK:1,2013-12-03T18:18:00Z,27.6010,-82.7510,1014.2,1111122 
COMPS,ioos:station:USF.COMPS:EGK:1,2013-12-03T18:24:00Z,27.6010,-82.7510,1014.02,1111122 
COMPS,ioos:station:USF.COMPS:EGK:1,2013-12-03T18:30:00Z,27.6010,-82.7510,1014.0,1111122 
COMPS,ioos:station:USF.COMPS:EGK:1,2013-12-03T18:36:00Z,27.6010,-82.7510,1013.93,1111122 
COMPS,ioos:station:USF.COMPS:EGK:1,2013-12-03T18:42:00Z,27.6010,-82.7510,1013.8,1111122 
COMPS,ioos:station:USF.COMPS:EGK:1,2013-12-03T18:48:00Z,27.6010,-82.7510,1013.74,1111122 
COMPS,ioos:station:USF.COMPS:EGK:1,2013-12-03T18:54:00Z,27.6010,-82.7510,1013.61,1111122 
COMPS,ioos:station:USF.COMPS:EGK:1,2013-12-03T19:00:00Z,27.6010,-82.7510,1013.48,1111122 
COMPS,ioos:station:USF.COMPS:EGK:1,2013-12-03T19:06:00Z,27.6010,-82.7510,1013.37,1111122 
COMPS,ioos:station:USF.COMPS:EGK:1,2013-12-03T19:12:00Z,27.6010,-82.7510,1013.28,1111122 
COMPS,ioos:station:USF.COMPS:EGK:1,2013-12-03T19:18:00Z,27.6010,-82.7510,1013.22,1111122 
COMPS,ioos:station:USF.COMPS:EGK:1,2013-12-03T19:24:00Z,27.6010,-82.7510,1013.14,1111122 
COMPS,ioos:station:USF.COMPS:EGK:1,2013-12-03T19:30:00Z,27.6010,-82.7510,1013.01,1111122 
COMPS,ioos:station:USF.COMPS:EGK:1,2013-12-03T19:36:00Z,27.6010,-82.7510,1012.88,1111122 
COMPS,ioos:station:USF.COMPS:EGK:1,2013-12-03T19:42:00Z,27.6010,-82.7510,1012.86,1111122 
COMPS,ioos:station:USF.COMPS:EGK:1,2013-12-03T19:48:00Z,27.6010,-82.7510,1012.73,1111122 
COMPS,ioos:station:USF.COMPS:EGK:1,2013-12-03T19:54:00Z,27.6010,-82.7510,1012.65,1111122 
COMPS,ioos:station:USF.COMPS:EGK:1,2013-12-03T20:00:00Z,27.6010,-82.7510,1012.86,1111122 
COMPS,ioos:station:USF.COMPS:EGK:1,2013-12-03T20:06:00Z,27.6010,-82.7510,1013.05,1111122 
COMPS,ioos:station:USF.COMPS:EGK:1,2013-12-03T20:12:00Z,27.6010,-82.7510,1013.12,1111122 
COMPS,ioos:station:USF.COMPS:EGK:1,2013-12-03T20:18:00Z,27.6010,-82.7510,1013.13,1111122 
COMPS,ioos:station:USF.COMPS:EGK:1,2013-12-03T20:24:00Z,27.6010,-82.7510,1013.14,1111122 
COMPS,ioos:station:USF.COMPS:EGK:1,2013-12-03T20:30:00Z,27.6010,-82.7510,1013.14,1111122 
COMPS,ioos:station:USF.COMPS:EGK:1,2013-12-03T20:36:00Z,27.6010,-82.7510,1013.14,1111122 
COMPS,ioos:station:USF.COMPS:EGK:1,2013-12-03T20:42:00Z,27.6010,-82.7510,1013.14,1111122 
COMPS,ioos:station:USF.COMPS:EGK:1,2013-12-03T20:48:00Z,27.6010,-82.7510,1013.08,1111122 
COMPS,ioos:station:USF.COMPS:EGK:1,2013-12-03T20:54:00Z,27.6010,-82.7510,1013.1,1111122 
COMPS,ioos:station:USF.COMPS:EGK:1,2013-12-03T21:00:00Z,27.6010,-82.7510,1013.1,1111122 
COMPS,ioos:station:USF.COMPS:EGK:1,2013-12-03T21:06:00Z,27.6010,-82.7510,1013.1,1111122 
COMPS,ioos:station:USF.COMPS:EGK:1,2013-12-03T21:12:00Z,27.6010,-82.7510,1013.09,1111122 
COMPS,ioos:station:USF.COMPS:EGK:1,2013-12-03T21:18:00Z,27.6010,-82.7510,1013.0,1111122 
COMPS,ioos:station:USF.COMPS:EGK:1,2013-12-03T21:24:00Z,27.6010,-82.7510,1013.02,1111122 
COMPS,ioos:station:USF.COMPS:EGK:1,2013-12-03T21:30:00Z,27.6010,-82.7510,1013.01,1111122 
COMPS,ioos:station:USF.COMPS:EGK:1,2013-12-03T21:36:00Z,27.6010,-82.7510,1013.02,1111122 
COMPS,ioos:station:USF.COMPS:EGK:1,2013-12-03T21:42:00Z,27.6010,-82.7510,1013.09,1111122 
COMPS,ioos:station:USF.COMPS:EGK:1,2013-12-03T21:48:00Z,27.6010,-82.7510,1013.09,1111122 
COMPS,ioos:station:USF.COMPS:EGK:1,2013-12-03T21:54:00Z,27.6010,-82.7510,1013.09,1111122 
COMPS,ioos:station:USF.COMPS:EGK:1,2013-12-03T22:00:00Z,27.6010,-82.7510,1013.1,1111122 
COMPS,ioos:station:USF.COMPS:EGK:1,2013-12-03T22:06:00Z,27.6010,-82.7510,1013.12,1111122 
COMPS,ioos:station:USF.COMPS:EGK:1,2013-12-03T22:12:00Z,27.6010,-82.7510,1013.14,1111122 
COMPS,ioos:station:USF.COMPS:EGK:1,2013-12-03T22:18:00Z,27.6010,-82.7510,1013.21,1111122 
COMPS,ioos:station:USF.COMPS:EGK:1,2013-12-03T22:24:00Z,27.6010,-82.7510,1013.33,1111122 
COMPS,ioos:station:USF.COMPS:EGK:1,2013-12-03T22:30:00Z,27.6010,-82.7510,1013.38,1111122 
COMPS,ioos:station:USF.COMPS:EGK:1,2013-12-03T22:36:00Z,27.6010,-82.7510,1013.49,1111122 
COMPS,ioos:station:USF.COMPS:EGK:1,2013-12-03T22:42:00Z,27.6010,-82.7510,1013.5,1111122 
COMPS,ioos:station:USF.COMPS:EGK:1,2013-12-03T22:48:00Z,27.6010,-82.7510,1013.61,1111122 
COMPS,ioos:station:USF.COMPS:EGK:1,2013-12-03T22:54:00Z,27.6010,-82.7510,1013.7,1111122 
COMPS,ioos:station:USF.COMPS:EGK:1,2013-12-03T23:00:00Z,27.6010,-82.7510,1013.76,1111122 
COMPS,ioos:station:USF.COMPS:EGK:1,2013-12-03T23:06:00Z,27.6010,-82.7510,1013.78,1111122 
COMPS,ioos:station:USF.COMPS:EGK:1,2013-12-03T23:12:00Z,27.6010,-82.7510,1013.94,1111122 
COMPS,ioos:station:USF.COMPS:EGK:1,2013-12-03T23:18:00Z,27.6010,-82.7510,1014.02,1111122 
COMPS,ioos:station:USF.COMPS:EGK:1,2013-12-03T23:24:00Z,27.6010,-82.7510,1014.18,1111122 
COMPS,ioos:station:USF.COMPS:EGK:1,2013-12-03T23:30:00Z,27.6010,-82.7510,1014.18,1111122 
COMPS,ioos:station:USF.COMPS:EGK:1,2013-12-03T23:36:00Z,27.6010,-82.7510,1014.18,1111122 
COMPS,ioos:station:USF.COMPS:EGK:1,2013-12-03T23:42:00Z,27.6010,-82.7510,1014.18,1111122 
COMPS,ioos:station:USF.COMPS:EGK:1,2013-12-03T23:48:00Z,27.6010,-82.7510,1014.18,1111122 
COMPS,ioos:station:USF.COMPS:EGK:1,2013-12-03T23:54:00Z,27.6010,-82.7510,1014.18,1111122 
COMPS,ioos:station:USF.COMPS:EGK:1,2013-12-04T00:00:00Z,27.6010,-82.7510,1014.18,1111122 
COMPS,ioos:station:USF.COMPS:EGK:1,2013-12-04T00:06:00Z,27.6010,-82.7510,1014.21,1111122 
COMPS,ioos:station:USF.COMPS:EGK:1,2013-12-04T00:12:00Z,27.6010,-82.7510,1014.32,1111122 
COMPS,ioos:station:USF.COMPS:EGK:1,2013-12-04T00:18:00Z,27.6010,-82.7510,1014.33,1111122 
COMPS,ioos:station:USF.COMPS:EGK:1,2013-12-04T00:24:00Z,27.6010,-82.7510,1014.32,1111122 
COMPS,ioos:station:USF.COMPS:EGK:1,2013-12-04T00:30:00Z,27.6010,-82.7510,1014.32,1111122 
COMPS,ioos:station:USF.COMPS:EGK:1,2013-12-04T00:36:00Z,27.6010,-82.7510,1014.32,1111122 
COMPS,ioos:station:USF.COMPS:EGK:1,2013-12-04T00:42:00Z,27.6010,-82.7510,1014.34,1111122 
COMPS,ioos:station:USF.COMPS:EGK:1,2013-12-04T00:48:00Z,27.6010,-82.7510,1014.46,1111122 
COMPS,ioos:station:USF.COMPS:EGK:1,2013-12-04T00:54:00Z,27.6010,-82.7510,1014.46,1111122 
COMPS,ioos:station:USF.COMPS:EGK:1,2013-12-04T01:00:00Z,27.6010,-82.7510,1014.45,1111122 
COMPS,ioos:station:USF.COMPS:EGK:1,2013-12-04T01:06:00Z,27.6010,-82.7510,1014.44,1111122 
COMPS,ioos:station:USF.COMPS:EGK:1,2013-12-04T01:12:00Z,27.6010,-82.7510,1014.45,1111122 
COMPS,ioos:station:USF.COMPS:EGK:1,2013-12-04T01:18:00Z,27.6010,-82.7510,1014.41,1111122 
COMPS,ioos:station:USF.COMPS:EGK:1,2013-12-04T01:24:00Z,27.6010,-82.7510,1014.46,1111122 
COMPS,ioos:station:USF.COMPS:EGK:1,2013-12-04T01:30:00Z,27.6010,-82.7510,1014.54,1111122 
COMPS,ioos:station:USF.COMPS:EGK:1,2013-12-04T01:36:00Z,27.6010,-82.7510,1014.66,1111122 
COMPS,ioos:station:USF.COMPS:EGK:1,2013-12-04T01:42:00Z,27.6010,-82.7510,1014.73,1111122 
COMPS,ioos:station:USF.COMPS:EGK:1,2013-12-04T01:48:00Z,27.6010,-82.7510,1014.73,1111122 
COMPS,ioos:station:USF.COMPS:EGK:1,2013-12-04T01:54:00Z,27.6010,-82.7510,1014.72,1111122 
COMPS,ioos:station:USF.COMPS:EGK:1,2013-12-04T02:00:00Z,27.6010,-82.7510,1014.5,1111122 
COMPS,ioos:station:USF.COMPS:EGK:1,2013-12-04T02:06:00Z,27.6010,-82.7510,1014.64,1111122 
COMPS,ioos:station:USF.COMPS:EGK:1,2013-12-04T02:12:00Z,27.6010,-82.7510,1014.73,1111122 
COMPS,ioos:station:USF.COMPS:EGK:1,2013-12-04T02:18:00Z,27.6010,-82.7510,1014.64,1111122 
COMPS,ioos:station:USF.COMPS:EGK:1,2013-12-04T02:24:00Z,27.6010,-82.7510,1014.65,1111122 
COMPS,ioos:station:USF.COMPS:EGK:1,2013-12-04T02:30:00Z,27.6010,-82.7510,1014.74,1111122 
COMPS,ioos:station:USF.COMPS:EGK:1,2013-12-04T02:36:00Z,27.6010,-82.7510,1014.74,1111122 
COMPS,ioos:station:USF.COMPS:EGK:1,2013-12-04T02:42:00Z,27.6010,-82.7510,1014.77,1111122 
COMPS,ioos:station:USF.COMPS:EGK:1,2013-12-04T02:48:00Z,27.6010,-82.7510,1014.74,1111122 
COMPS,ioos:station:USF.COMPS:EGK:1,2013-12-04T02:54:00Z,27.6010,-82.7510,1014.76,1111122 
COMPS,ioos:station:USF.COMPS:EGK:1,2013-12-04T03:00:00Z,27.6010,-82.7510,1014.89,1111122 
COMPS,ioos:station:USF.COMPS:EGK:1,2013-12-04T03:06:00Z,27.6010,-82.7510,1014.88,1111122 
COMPS,ioos:station:USF.COMPS:EGK:1,2013-12-04T03:12:00Z,27.6010,-82.7510,1015.04,1111122 
COMPS,ioos:station:USF.COMPS:EGK:1,2013-12-04T03:18:00Z,27.6010,-82.7510,1015.14,1111122 
COMPS,ioos:station:USF.COMPS:EGK:1,2013-12-04T03:24:00Z,27.6010,-82.7510,1015.24,1111122 
COMPS,ioos:station:USF.COMPS:EGK:1,2013-12-04T03:30:00Z,27.6010,-82.7510,1015.32,1111122 
COMPS,ioos:station:USF.COMPS:EGK:1,2013-12-04T03:36:00Z,27.6010,-82.7510,1015.33,1111122 
COMPS,ioos:station:USF.COMPS:EGK:1,2013-12-04T03:42:00Z,27.6010,-82.7510,1015.4,1111122 
COMPS,ioos:station:USF.COMPS:EGK:1,2013-12-04T03:48:00Z,27.6010,-82.7510,1015.45,1111122 
COMPS,ioos:station:USF.COMPS:EGK:1,2013-12-04T03:54:00Z,27.6010,-82.7510,1015.49,1111122 
COMPS,ioos:station:USF.COMPS:EGK:1,2013-12-04T04:00:00Z,27.6010,-82.7510,1015.5,1111122 
COMPS,ioos:station:USF.COMPS:EGK:1,2013-12-04T04:06:00Z,27.6010,-82.7510,1015.46,1111122 
COMPS,ioos:station:USF.COMPS:EGK:1,2013-12-04T04:12:00Z,27.6010,-82.7510,1015.45,1111122 
COMPS,ioos:station:USF.COMPS:EGK:1,2013-12-04T04:18:00Z,27.6010,-82.7510,1015.5,1111122 
COMPS,ioos:station:USF.COMPS:EGK:1,2013-12-04T04:24:00Z,27.6010,-82.7510,1015.54,1111122 
COMPS,ioos:station:USF.COMPS:EGK:1,2013-12-04T04:30:00Z,27.6010,-82.7510,1015.64,1111122 
COMPS,ioos:station:USF.COMPS:EGK:1,2013-12-04T04:36:00Z,27.6010,-82.7510,1015.61,1111122 
COMPS,ioos:station:USF.COMPS:EGK:1,2013-12-04T04:42:00Z,27.6010,-82.7510,1015.68,1111122 
COMPS,ioos:station:USF.COMPS:EGK:1,2013-12-04T04:48:00Z,27.6010,-82.7510,1015.72,1111122 
COMPS,ioos:station:USF.COMPS:EGK:1,2013-12-04T04:54:00Z,27.6010,-82.7510,1015.72,1111122 
COMPS,ioos:station:USF.COMPS:EGK:1,2013-12-04T05:00:00Z,27.6010,-82.7510,1015.64,1111122 
COMPS,ioos:station:USF.COMPS:EGK:1,2013-12-04T05:06:00Z,27.6010,-82.7510,1015.6,1111122 
COMPS,ioos:station:USF.COMPS:EGK:1,2013-12-04T05:12:00Z,27.6010,-82.7510,1015.57,1111122 
COMPS,ioos:station:USF.COMPS:EGK:1,2013-12-04T05:18:00Z,27.6010,-82.7510,1015.53,1111122 
COMPS,ioos:station:USF.COMPS:EGK:1,2013-12-04T05:24:00Z,27.6010,-82.7510,1015.56,1111122 
COMPS,ioos:station:USF.COMPS:EGK:1,2013-12-04T05:30:00Z,27.6010,-82.7510,1015.52,1111122 
COMPS,ioos:station:USF.COMPS:EGK:1,2013-12-04T05:36:00Z,27.6010,-82.7510,1015.41,1111122 
COMPS,ioos:station:USF.COMPS:EGK:1,2013-12-04T05:42:00Z,27.6010,-82.7510,1015.34,1111122 
COMPS,ioos:station:USF.COMPS:EGK:1,2013-12-04T05:48:00Z,27.6010,-82.7510,1015.44,1111122 
COMPS,ioos:station:USF.COMPS:EGK:1,2013-12-04T05:54:00Z,27.6010,-82.7510,1015.44,1111122 
COMPS,ioos:station:USF.COMPS:EGK:1,2013-12-04T06:00:00Z,27.6010,-82.7510,1015.3,1111122 
COMPS,ioos:station:USF.COMPS:EGK:1,2013-12-04T06:06:00Z,27.6010,-82.7510,1015.32,1111122 
COMPS,ioos:station:USF.COMPS:EGK:1,2013-12-04T06:12:00Z,27.6010,-82.7510,1015.29,1111122 
COMPS,ioos:station:USF.COMPS:EGK:1,2013-12-04T06:18:00Z,27.6010,-82.7510,1015.29,1111122 
COMPS,ioos:station:USF.COMPS:EGK:1,2013-12-04T06:24:00Z,27.6010,-82.7510,1015.3,1111122 
COMPS,ioos:station:USF.COMPS:EGK:1,2013-12-04T06:30:00Z,27.6010,-82.7510,1015.34,1111122 
COMPS,ioos:station:USF.COMPS:EGK:1,2013-12-04T06:36:00Z,27.6010,-82.7510,1015.3,1111122 
COMPS,ioos:station:USF.COMPS:EGK:1,2013-12-04T06:42:00Z,27.6010,-82.7510,1015.3,1111122 
COMPS,ioos:station:USF.COMPS:EGK:1,2013-12-04T06:48:00Z,27.6010,-82.7510,1015.3,1111122 
COMPS,ioos:station:USF.COMPS:EGK:1,2013-12-04T06:54:00Z,27.6010,-82.7510,1015.29,1111122 
COMPS,ioos:station:USF.COMPS:EGK:1,2013-12-04T07:00:00Z,27.6010,-82.7510,1015.33,1111122 
COMPS,ioos:station:USF.COMPS:EGK:1,2013-12-04T07:06:00Z,27.6010,-82.7510,1015.36,1111122 
COMPS,ioos:station:USF.COMPS:EGK:1,2013-12-04T07:12:00Z,27.6010,-82.7510,1015.34,1111122 
COMPS,ioos:station:USF.COMPS:EGK:1,2013-12-04T07:18:00Z,27.6010,-82.7510,1015.34,1111122 
COMPS,ioos:station:USF.COMPS:EGK:1,2013-12-04T07:24:00Z,27.6010,-82.7510,1015.36,1111122 
COMPS,ioos:station:USF.COMPS:EGK:1,2013-12-04T07:30:00Z,27.6010,-82.7510,1015.34,1111122 
COMPS,ioos:station:USF.COMPS:EGK:1,2013-12-04T07:36:00Z,27.6010,-82.7510,1015.3,1111122 
COMPS,ioos:station:USF.COMPS:EGK:1,2013-12-04T07:42:00Z,27.6010,-82.7510,1015.33,1111122 
COMPS,ioos:station:USF.COMPS:EGK:1,2013-12-04T07:48:00Z,27.6010,-82.7510,1015.33,1111122 
COMPS,ioos:station:USF.COMPS:EGK:1,2013-12-04T07:54:00Z,27.6010,-82.7510,1015.34,1111122 
COMPS,ioos:station:USF.COMPS:EGK:1,2013-12-04T08:00:00Z,27.6010,-82.7510,1015.26,1111122 
COMPS,ioos:station:USF.COMPS:EGK:1,2013-12-04T08:06:00Z,27.6010,-82.7510,1015.2,1111122 
COMPS,ioos:station:USF.COMPS:EGK:1,2013-12-04T08:12:00Z,27.6010,-82.7510,1015.28,1111122 
COMPS,ioos:station:USF.COMPS:EGK:1,2013-12-04T08:18:00Z,27.6010,-82.7510,1015.33,1111122 
COMPS,ioos:station:USF.COMPS:EGK:1,2013-12-04T08:24:00Z,27.6010,-82.7510,1015.33,1111122 
COMPS,ioos:station:USF.COMPS:EGK:1,2013-12-04T08:30:00Z,27.6010,-82.7510,1015.32,1111122 
COMPS,ioos:station:USF.COMPS:EGK:1,2013-12-04T08:36:00Z,27.6010,-82.7510,1015.3,1111122 
COMPS,ioos:station:USF.COMPS:EGK:1,2013-12-04T08:42:00Z,27.6010,-82.7510,1015.33,1111122 
COMPS,ioos:station:USF.COMPS:EGK:1,2013-12-04T08:48:00Z,27.6010,-82.7510,1015.32,1111122 
COMPS,ioos:station:USF.COMPS:EGK:1,2013-12-04T08:54:00Z,27.6010,-82.7510,1015.37,1111122 
COMPS,ioos:station:USF.COMPS:EGK:1,2013-12-04T09:00:00Z,27.6010,-82.7510,1015.37,1111122 
COMPS,ioos:station:USF.COMPS:EGK:1,2013-12-04T09:06:00Z,27.6010,-82.7510,1015.41,1111122 
COMPS,ioos:station:USF.COMPS:EGK:1,2013-12-04T09:12:00Z,27.6010,-82.7510,1015.38,1111122 
COMPS,ioos:station:USF.COMPS:EGK:1,2013-12-04T09:18:00Z,27.6010,-82.7510,1015.37,1111122 
COMPS,ioos:station:USF.COMPS:EGK:1,2013-12-04T09:24:00Z,27.6010,-82.7510,1015.38,1111122 
COMPS,ioos:station:USF.COMPS:EGK:1,2013-12-04T09:30:00Z,27.6010,-82.7510,1015.54,1111122 
COMPS,ioos:station:USF.COMPS:EGK:1,2013-12-04T09:36:00Z,27.6010,-82.7510,1015.49,1111122 
COMPS,ioos:station:USF.COMPS:EGK:1,2013-12-04T09:42:00Z,27.6010,-82.7510,1015.54,1111122 
COMPS,ioos:station:USF.COMPS:EGK:1,2013-12-04T09:48:00Z,27.6010,-82.7510,1015.54,1111122 
COMPS,ioos:station:USF.COMPS:EGK:1,2013-12-04T09:54:00Z,27.6010,-82.7510,1015.6,1111122 
COMPS,ioos:station:USF.COMPS:EGK:1,2013-12-04T10:00:00Z,27.6010,-82.7510,1015.6,1111122 
COMPS,ioos:station:USF.COMPS:EGK:1,2013-12-04T10:06:00Z,27.6010,-82.7510,1015.65,1111122 
COMPS,ioos:station:USF.COMPS:EGK:1,2013-12-04T10:12:00Z,27.6010,-82.7510,1015.72,1111122 
COMPS,ioos:station:USF.COMPS:EGK:1,2013-12-04T10:18:00Z,27.6010,-82.7510,1015.77,1111122 
COMPS,ioos:station:USF.COMPS:EGK:1,2013-12-04T10:24:00Z,27.6010,-82.7510,1015.85,1111122 
COMPS,ioos:station:USF.COMPS:EGK:1,2013-12-04T10:30:00Z,27.6010,-82.7510,1015.85,1111122 
COMPS,ioos:station:USF.COMPS:EGK:1,2013-12-04T10:36:00Z,27.6010,-82.7510,1015.85,1111122 
COMPS,ioos:station:USF.COMPS:EGK:1,2013-12-04T10:42:00Z,27.6010,-82.7510,1015.84,1111122 
COMPS,ioos:station:USF.COMPS:EGK:1,2013-12-04T10:48:00Z,27.6010,-82.7510,1015.93,1111122 
COMPS,ioos:station:USF.COMPS:EGK:1,2013-12-04T10:54:00Z,27.6010,-82.7510,1016.09,1111122 
COMPS,ioos:station:USF.COMPS:EGK:1,2013-12-04T11:00:00Z,27.6010,-82.7510,1016.21,1111122 
COMPS,ioos:station:USF.COMPS:EGK:1,2013-12-04T11:06:00Z,27.6010,-82.7510,1016.26,1111122 
COMPS,ioos:station:USF.COMPS:EGK:1,2013-12-04T11:12:00Z,27.6010,-82.7510,1016.34,1111122 
COMPS,ioos:station:USF.COMPS:EGK:1,2013-12-04T11:18:00Z,27.6010,-82.7510,1016.34,1111122 
COMPS,ioos:station:USF.COMPS:EGK:1,2013-12-04T11:24:00Z,27.6010,-82.7510,1016.36,1111122 
COMPS,ioos:station:USF.COMPS:EGK:1,2013-12-04T11:30:00Z,27.6010,-82.7510,1016.34,1111122 
COMPS,ioos:station:USF.COMPS:EGK:1,2013-12-04T11:36:00Z,27.6010,-82.7510,1016.4,1111122 
COMPS,ioos:station:USF.COMPS:EGK:1,2013-12-04T11:42:00Z,27.6010,-82.7510,1016.38,1111122 
COMPS,ioos:station:USF.COMPS:EGK:1,2013-12-04T11:48:00Z,27.6010,-82.7510,1016.57,1111122 
COMPS,ioos:station:USF.COMPS:EGK:1,2013-12-04T11:54:00Z,27.6010,-82.7510,1016.64,1111122 
COMPS,ioos:station:USF.COMPS:EGK:1,2013-12-04T12:00:00Z,27.6010,-82.7510,1016.74,1111122 
COMPS,ioos:station:USF.COMPS:EGK:1,2013-12-04T12:06:00Z,27.6010,-82.7510,1016.7,1111122 
COMPS,ioos:station:USF.COMPS:EGK:1,2013-12-04T12:12:00Z,27.6010,-82.7510,1016.68,1111122 
COMPS,ioos:station:USF.COMPS:EGK:1,2013-12-04T12:18:00Z,27.6010,-82.7510,1016.7,1111122 
COMPS,ioos:station:USF.COMPS:EGK:1,2013-12-04T12:24:00Z,27.6010,-82.7510,1016.78,1111122 
COMPS,ioos:station:USF.COMPS:EGK:1,2013-12-04T12:30:00Z,27.6010,-82.7510,1016.8,1111122 
COMPS,ioos:station:USF.COMPS:EGK:1,2013-12-04T12:36:00Z,27.6010,-82.7510,1016.86,1111122 
COMPS,ioos:station:USF.COMPS:EGK:1,2013-12-04T12:42:00Z,27.6010,-82.7510,1016.94,1111122 
COMPS,ioos:station:USF.COMPS:EGK:1,2013-12-04T12:48:00Z,27.6010,-82.7510,1016.96,1111122 
COMPS,ioos:station:USF.COMPS:EGK:1,2013-12-04T12:54:00Z,27.6010,-82.7510,1016.93,1111122 
COMPS,ioos:station:USF.COMPS:EGK:1,2013-12-04T13:00:00Z,27.6010,-82.7510,1017.08,1111122 
COMPS,ioos:station:USF.COMPS:EGK:1,2013-12-04T13:06:00Z,27.6010,-82.7510,1017.21,1111122 
COMPS,ioos:station:USF.COMPS:EGK:1,2013-12-04T13:12:00Z,27.6010,-82.7510,1017.32,1111122 
COMPS,ioos:station:USF.COMPS:EGK:1,2013-12-04T13:18:00Z,27.6010,-82.7510,1017.53,1111122 
COMPS,ioos:station:USF.COMPS:EGK:1,2013-12-04T13:24:00Z,27.6010,-82.7510,1017.52,1111122 
COMPS,ioos:station:USF.COMPS:EGK:1,2013-12-04T13:30:00Z,27.6010,-82.7510,1017.6,1111122 
COMPS,ioos:station:USF.COMPS:EGK:1,2013-12-04T13:36:00Z,27.6010,-82.7510,1017.65,1111122 
COMPS,ioos:station:USF.COMPS:EGK:1,2013-12-04T13:42:00Z,27.6010,-82.7510,1017.72,1111122 
COMPS,ioos:station:USF.COMPS:EGK:1,2013-12-04T13:48:00Z,27.6010,-82.7510,1017.73,1111122 
COMPS,ioos:station:USF.COMPS:EGK:1,2013-12-04T13:54:00Z,27.6010,-82.7510,1017.84,1111122 
COMPS,ioos:station:USF.COMPS:EGK:1,2013-12-04T14:00:00Z,27.6010,-82.7510,1017.94,1111122 
COMPS,ioos:station:USF.COMPS:EGK:1,2013-12-04T14:06:00Z,27.6010,-82.7510,1017.98,1111122 
COMPS,ioos:station:USF.COMPS:EGK:1,2013-12-04T14:12:00Z,27.6010,-82.7510,1018.09,1111122 
COMPS,ioos:station:USF.COMPS:EGK:1,2013-12-04T14:18:00Z,27.6010,-82.7510,1018.17,1111122 
COMPS,ioos:station:USF.COMPS:EGK:1,2013-12-04T14:24:00Z,27.6010,-82.7510,1018.32,1111122 
COMPS,ioos:station:USF.COMPS:EGK:1,2013-12-04T14:30:00Z,27.6010,-82.7510,1018.42,1111122 
COMPS,ioos:station:USF.COMPS:EGK:1,2013-12-04T14:36:00Z,27.6010,-82.7510,1018.48,1111122 
COMPS,ioos:station:USF.COMPS:EGK:1,2013-12-04T14:42:00Z,27.6010,-82.7510,1018.46,1111122 
COMPS,ioos:station:USF.COMPS:EGK:1,2013-12-04T14:48:00Z,27.6010,-82.7510,1018.54,1111122 
COMPS,ioos:station:USF.COMPS:EGK:1,2013-12-04T14:54:00Z,27.6010,-82.7510,1018.54,1111122 
COMPS,ioos:station:USF.COMPS:EGK:1,2013-12-04T15:00:00Z,27.6010,-82.7510,1018.54,1111122 
COMPS,ioos:station:USF.COMPS:EGK:1,2013-12-04T15:06:00Z,27.6010,-82.7510,1018.56,1111122 
COMPS,ioos:station:USF.COMPS:EGK:1,2013-12-04T15:12:00Z,27.6010,-82.7510,1018.62,1111122 
COMPS,ioos:station:USF.COMPS:EGK:1,2013-12-04T15:18:00Z,27.6010,-82.7510,1018.68,1111122 
COMPS,ioos:station:USF.COMPS:EGK:1,2013-12-04T15:24:00Z,27.6010,-82.7510,1018.65,1111122 
COMPS,ioos:station:USF.COMPS:EGK:1,2013-12-04T15:30:00Z,27.6010,-82.7510,1018.66,1111122 
COMPS,ioos:station:USF.COMPS:EGK:1,2013-12-04T15:36:00Z,27.6010,-82.7510,1018.68,1111122 
COMPS,ioos:station:USF.COMPS:EGK:1,2013-12-04T15:42:00Z,27.6010,-82.7510,1018.68,1111122 
COMPS,ioos:station:USF.COMPS:EGK:1,2013-12-04T15:48:00Z,27.6010,-82.7510,1018.69,1111122 
COMPS,ioos:station:USF.COMPS:EGK:1,2013-12-04T15:54:00Z,27.6010,-82.7510,1018.69,1111122 
COMPS,ioos:station:USF.COMPS:EGK:1,2013-12-04T16:00:00Z,27.6010,-82.7510,1018.69,1111122 
COMPS,ioos:station:USF.COMPS:EGK:1,2013-12-04T16:06:00Z,27.6010,-82.7510,1018.76,1111122 
COMPS,ioos:station:USF.COMPS:EGK:1,2013-12-04T16:12:00Z,27.6010,-82.7510,1018.7,1111122 
COMPS,ioos:station:USF.COMPS:EGK:1,2013-12-04T16:18:00Z,27.6010,-82.7510,1018.66,1111122 
COMPS,ioos:station:USF.COMPS:EGK:1,2013-12-04T16:24:00Z,27.6010,-82.7510,1018.72,1111122 
COMPS,ioos:station:USF.COMPS:EGK:1,2013-12-04T16:30:00Z,27.6010,-82.7510,1018.66,1111122 
COMPS,ioos:station:USF.COMPS:EGK:1,2013-12-04T16:36:00Z,27.6010,-82.7510,1018.66,1111122 
COMPS,ioos:station:USF.COMPS:EGK:1,2013-12-04T16:42:00Z,27.6010,-82.7510,1018.66,1111122 
COMPS,ioos:station:USF.COMPS:EGK:1,2013-12-04T16:48:00Z,27.6010,-82.7510,1018.57,1111122 
COMPS,ioos:station:USF.COMPS:EGK:1,2013-12-04T16:54:00Z,27.6010,-82.7510,1018.52,1111122 
COMPS,ioos:station:USF.COMPS:EGK:1,2013-12-04T17:00:00Z,27.6010,-82.7510,1018.48,1111122 
COMPS,ioos:station:USF.COMPS:EGK:1,2013-12-04T17:06:00Z,27.6010,-82.7510,1018.42,1111122 
COMPS,ioos:station:USF.COMPS:EGK:1,2013-12-04T17:12:00Z,27.6010,-82.7510,1018.28,1111122 
COMPS,ioos:station:USF.COMPS:EGK:1,2013-12-04T17:18:00Z,27.6010,-82.7510,1018.17,1111122 
COMPS,ioos:station:USF.COMPS:EGK:1,2013-12-04T17:24:00Z,27.6010,-82.7510,1018.14,1111122 
COMPS,ioos:station:USF.COMPS:EGK:1,2013-12-04T17:30:00Z,27.6010,-82.7510,1018.06,1111122 
COMPS,ioos:station:USF.COMPS:EGK:1,2013-12-04T17:36:00Z,27.6010,-82.7510,1017.93,1111122 
COMPS,ioos:station:USF.COMPS:EGK:1,2013-12-04T17:42:00Z,27.6010,-82.7510,1017.8,1111122 
COMPS,ioos:station:USF.COMPS:EGK:1,2013-12-04T17:48:00Z,27.6010,-82.7510,1017.76,1111122 
COMPS,ioos:station:USF.COMPS:EGK:1,2013-12-04T17:54:00Z,27.6010,-82.7510,1017.64,1111122 
COMPS,ioos:station:USF.COMPS:EGK:1,2013-12-04T18:00:00Z,27.6010,-82.7510,1017.48,1111122 
COMPS,ioos:station:USF.COMPS:EGK:1,2013-12-04T18:06:00Z,27.6010,-82.7510,1017.45,1111122 
COMPS,ioos:station:USF.COMPS:EGK:1,2013-12-04T18:12:00Z,27.6010,-82.7510,1017.45,1111122 
COMPS,ioos:station:USF.COMPS:EGK:1,2013-12-04T18:18:00Z,27.6010,-82.7510,1017.44,1111122 
COMPS,ioos:station:USF.COMPS:EGK:1,2013-12-04T18:24:00Z,27.6010,-82.7510,1017.32,1111122 
COMPS,ioos:station:USF.COMPS:EGK:1,2013-12-04T18:30:00Z,27.6010,-82.7510,1017.18,1111122 